FW2748 Weather Reports


time (UTC)temp
F
wind
direction
speed
knots
gust
knots
rain 1hr
in
rain 24hr
in
rain mn
in
humidity
%
barometer
mb
20260906223307 82 5 10.4 13.0 0.00 0.00 0.00 54 1035.6
20260906222806 82 13 9.6 12.2 0.00 0.00 0.00 54 1035.6
20260906222306 82 7 5.2 10.4 0.00 0.00 0.00 55 1035.6
20260906221806 82 2 8.7 12.2 0.00 0.00 0.00 54 1035.6
20260906221306 82 349 7.8 15.6 0.00 0.00 0.00 54 1035.6
20260906220306 82 12 7.8 10.4 0.00 0.00 0.00 55 1035.6
20260906215807 82 0 10.4 10.4 0.00 0.00 0.00 55 1035.6
20260906215307 82 0 10.4 17.4 0.00 0.00 0.00 55 1035.6
20260906214806 82 14 7.8 13.0 0.00 0.00 0.00 56 1035.6
20260906214307 81 17 13.0 13.0 0.00 0.00 0.00 56 1035.6
20260906213806 82 359 6.1 13.0 0.00 0.00 0.00 55 1035.6
20260906213307 82 31 7.8 13.9 0.00 0.00 0.00 55 1035.6
20260906212307 82 17 8.7 8.7 0.00 0.00 0.00 56 1035.6
20260906211806 82 33 10.4 13.9 0.00 0.00 0.00 56 1035.6
20260906210807 81 41 4.3 12.2 0.00 0.00 0.00 57 1035.6
20260906210307 81 63 4.3 12.2 0.00 0.00 0.00 56 1035.6
20260906205807 81 51 5.2 8.7 0.00 0.00 0.00 57 1035.6
20260906205307 80 21 5.2 5.2 0.00 0.00 0.00 57 1035.6
20260906204306 80 18 5.2 6.1 0.00 0.00 0.00 58 1035.6
20260906203806 80 0 5.2 7.0 0.00 0.00 0.00 57 1035.6
20260906203306 80 0 7.0 7.0 0.00 0.00 0.00 57 1035.6
20260906202806 80 3 5.2 7.8 0.00 0.00 0.00 57 1035.6
20260906202307 80 64 4.3 5.2 0.00 0.00 0.00 57 1035.6
20260906201806 79 50 0.0 4.3 0.00 0.00 0.00 59 1035.6
20260906201306 79 47 0.0 4.3 0.00 0.00 0.00 59 1035.6
20260906200806 79 81 4.3 7.8 0.00 0.00 0.00 59 1035.6
20260906200306 78 58 2.6 7.8 0.00 0.00 0.00 59 1035.6
20260906195307 78 90 5.2 5.2 0.00 0.00 0.00 60 1035.6
20260906194808 78 95 3.5 5.2 0.00 0.00 0.00 60 1035.6
20260906194306 78 90 3.5 7.0 0.00 0.00 0.00 60 1035.6
20260906193806 78 62 4.3 4.3 0.00 0.00 0.00 60 1035.6
20260906193306 78 62 4.3 4.3 0.00 0.00 0.00 61 1035.6
20260906192806 78 70 4.3 7.0 0.00 0.00 0.00 60 1035.6
20260906191306 77 82 2.6 4.3 0.00 0.00 0.00 63 1035.6
20260906190806 76 22 0.9 6.1 0.00 0.00 0.00 63 1035.6
20260906190306 76 19 2.6 4.3 0.00 0.00 0.00 63 1035.6
20260906185807 76 5 2.6 5.2 0.00 0.00 0.00 64 1035.6
20260906185306 76 0 0.9 4.3 0.00 0.00 0.00 64 1035.6
20260906184807 75 51 2.6 6.1 0.00 0.00 0.00 65 1035.6
20260906184305 76 46 2.6 6.1 0.00 0.00 0.00 63 1035.6
20260906183806 76 43 3.5 5.2 0.00 0.00 0.00 64 1035.6
20260906183306 76 44 5.2 8.7 0.00 0.00 0.00 64 1035.6
20260906182807 75 58 0.9 8.7 0.00 0.00 0.00 65 1035.6
20260906182306 74 21 5.2 7.0 0.00 0.00 0.00 64 1035.6
20260906181806 74 340 4.3 7.8 0.00 0.00 0.00 65 1035.6
20260906181306 74 49 6.1 7.8 0.00 0.00 0.00 66 1035.6
20260906180806 73 6 2.6 7.8 0.00 0.00 0.00 68 1035.6
20260906180305 73 345 1.7 5.2 0.00 0.00 0.00 67 1035.6
20260906175306 73 34 2.6 7.0 0.00 0.00 0.00 67 1035.6
20260906174806 73 29 3.5 6.1 0.00 0.00 0.00 66 1035.6
20260906174306 73 343 4.3 7.8 0.00 0.00 0.00 66 1035.6
20260906173305 72 0 5.2 6.1 0.00 0.00 0.00 66 1035.6
20260906172306 72 39 6.1 7.8 0.00 0.00 0.00 67 1035.6
20260906171806 72 311 3.5 5.2 0.00 0.00 0.00 66 1035.6
20260906171307 72 8 5.2 6.1 0.00 0.00 0.00 66 1035.6
20260906170805 72 13 4.3 5.2 0.00 0.00 0.00 66 1035.6
20260906170306 73 12 6.1 10.4 0.00 0.00 0.00 65 1035.6
20260906165807 73 39 5.2 7.8 0.00 0.00 0.00 64 1035.6
20260906165307 73 29 6.1 8.7 0.00 0.00 0.00 64 1035.6
20260906164806 72 5 7.0 7.0 0.00 0.00 0.00 67 1035.6
20260906164306 72 2 4.3 8.7 0.00 0.00 0.00 67 1035.6
20260906163806 71 358 4.3 6.1 0.00 0.00 0.00 67 1035.6
20260906163305 71 25 4.3 6.1 0.00 0.00 0.00 68 1035.6
20260906162306 71 15 1.7 5.2 0.00 0.00 0.00 69 1035.6
20260906161806 71 15 3.5 6.1 0.00 0.00 0.00 68 1035.6
20260906160805 69 355 1.7 2.6 0.00 0.00 0.00 67 1035.6
20260906160306 69 355 2.6 5.2 0.00 0.00 0.00 67 1035.6
20260906155806 69 238 2.6 2.6 0.00 0.00 0.00 67 1035.6
20260906155307 69 210 1.7 4.3 0.00 0.00 0.00 66 1035.6
20260906154806 68 210 3.5 4.3 0.00 0.00 0.00 67 1035.6
20260906154307 68 210 2.6 2.6 0.00 0.00 0.00 68 1035.6
20260906153806 67 209 0.9 2.6 0.00 0.00 0.00 68 1035.6
20260906153306 67 209 0.9 1.7 0.00 0.00 0.00 68 1035.6
20260906152805 66 209 1.7 2.6 0.00 0.00 0.00 68 1035.6
20260906152307 66 209 0.9 1.7 0.00 0.00 0.00 70 1035.6
20260906151306 64 209 1.7 1.7 0.00 0.00 0.00 70 1035.6
20260906150306 64 209 2.6 2.6 0.00 0.00 0.00 70 1035.6
20260906145806 63 209 1.7 4.3 0.00 0.00 0.00 70 1035.6
20260906145307 63 209 2.6 5.2 0.00 0.00 0.00 71 1035.6
20260906144805 63 209 3.5 4.3 0.00 0.00 0.00 71 1035.6
20260906144305 63 209 4.3 6.1 0.00 0.00 0.00 72 1035.6
20260906143806 63 208 4.3 5.2 0.00 0.00 0.00 71 1035.6
20260906143306 62 207 4.3 7.0 0.00 0.00 0.00 71 1035.6
20260906142806 62 208 3.5 6.1 0.00 0.00 0.00 72 1035.6
20260906142307 61 202 1.7 5.2 0.00 0.00 0.00 72 1035.6
20260906141805 61 202 4.3 7.0 0.00 0.00 0.00 73 1035.6
20260906141306 60 200 5.2 7.8 0.00 0.00 0.00 74 1035.6
20260906140806 59 200 2.6 5.2 0.00 0.00 0.00 74 1035.6
20260906140305 59 190 2.6 4.3 0.00 0.00 0.00 75 1035.6
20260906135805 58 188 4.3 4.3 0.00 0.00 0.00 76 1035.6
20260906135306 58 186 2.6 2.6 0.00 0.00 0.00 76 1035.6
20260906134805 58 192 3.5 4.3 0.00 0.00 0.00 76 1035.6
20260906133806 58 197 2.6 4.3 0.00 0.00 0.00 75 1035.6
20260906133305 58 197 2.6 5.2 0.00 0.00 0.00 76 1035.6
20260906132307 57 195 1.7 2.6 0.00 0.00 0.00 77 1035.6
20260906131805 56 195 0.9 2.6 0.00 0.00 0.00 78 1035.6
20260906131306 56 195 3.5 4.3 0.00 0.00 0.00 78 1035.6
20260906130805 56 195 6.1 7.0 0.00 0.00 0.00 78 1035.6
20260906130305 56 161 2.6 4.3 0.00 0.00 0.00 78 1035.6
20260906125805 56 161 2.6 2.6 0.00 0.00 0.00 78 1035.6
20260906125306 57 161 3.5 5.2 0.00 0.00 0.00 78 1035.6
20260906124805 57 155 0.9 2.6 0.00 0.00 0.00 77 1035.6
20260906124306 57 155 0.9 1.7 0.00 0.00 0.00 78 1035.6
20260906123807 57 155 0.0 1.7 0.00 0.00 0.00 78 1035.6
20260906123306 57 155 1.7 1.7 0.00 0.00 0.00 77 1035.6
20260906122805 57 155 0.0 0.9 0.00 0.00 0.00 77 1035.6
20260906122306 57 155 0.0 0.9 0.00 0.00 0.00 77 1035.6
20260906121806 57 155 0.9 1.7 0.00 0.00 0.00 77 1035.6
20260906121305 57 155 1.7 1.7 0.00 0.00 0.00 77 1035.6
20260906120805 57 155 1.7 1.7 0.00 0.00 0.00 76 1035.6
20260906120305 57 155 0.0 0.0 0.00 0.00 0.00 76 1035.6
20260906115805 58 155 2.6 2.6 0.00 0.00 0.00 77 1035.6
20260906115306 58 155 0.0 0.9 0.00 0.00 0.00 76 1035.6
20260906114805 58 155 0.0 0.9 0.00 0.00 0.00 75 1035.6
20260906113305 59 155 0.0 1.7 0.00 0.00 0.00 74 1035.6
20260906112806 59 155 1.7 2.6 0.00 0.00 0.00 74 1035.6
20260906112307 59 155 0.9 2.6 0.00 0.00 0.00 75 1035.6
20260906111805 58 155 0.0 0.0 0.00 0.00 0.00 75 1035.6
20260906111306 58 155 0.0 0.9 0.00 0.00 0.00 75 1035.6
20260906110305 58 155 0.9 2.6 0.00 0.00 0.00 74 1035.6
20260906105806 59 155 3.5 4.3 0.00 0.00 0.00 74 1035.6
20260906105306 59 155 0.9 1.7 0.00 0.00 0.00 73 1035.6
20260906104806 59 155 0.9 2.6 0.00 0.00 0.00 73 1035.6
20260906103805 59 155 0.0 1.7 0.00 0.00 0.00 73 1035.6
20260906102805 58 155 2.6 2.6 0.00 0.00 0.00 75 1035.6
20260906101805 58 155 1.7 5.2 0.00 0.00 0.00 75 1035.6
20260906101305 58 154 5.2 5.2 0.00 0.00 0.00 75 1035.6
20260906100805 58 154 1.7 2.6 0.00 0.00 0.00 75 1035.6
20260906100306 58 154 0.9 1.7 0.00 0.00 0.00 74 1035.6
20260906095805 58 154 1.7 4.3 0.00 0.00 0.00 74 1035.6
20260906094805 58 154 1.7 2.6 0.00 0.00 0.00 73 1035.6
20260906094305 59 154 0.9 0.9 0.00 0.00 0.00 72 1035.6
20260906093806 59 154 0.9 1.7 0.00 0.00 0.00 72 1035.6
20260906092805 59 154 2.6 4.3 0.00 0.00 0.00 72 1035.6
20260906092306 59 154 4.3 5.2 0.00 0.00 0.00 72 1035.6
20260906091305 60 154 1.7 2.6 0.00 0.00 0.00 71 1035.6
20260906090805 60 154 2.6 4.3 0.00 0.00 0.00 71 1035.6
20260906085806 60 154 2.6 4.3 0.00 0.00 0.00 70 1035.6
20260906085307 61 154 4.3 5.2 0.00 0.00 0.00 69 1035.6
20260906084806 61 134 2.6 5.2 0.00 0.00 0.00 67 1035.6
20260906083305 62 123 2.6 4.3 0.00 0.00 0.00 66 1035.6
20260906082806 62 112 2.6 4.3 0.00 0.00 0.00 65 1035.6
20260906081806 63 72 4.3 4.3 0.00 0.00 0.00 63 1035.6
20260906081305 64 56 1.7 1.7 0.00 0.00 0.00 63 1035.6
20260906080805 64 56 0.0 0.9 0.00 0.00 0.00 62 1035.6
20260906074806 64 56 2.6 2.6 0.00 0.00 0.00 62 1035.6
20260906074305 64 56 0.9 1.7 0.00 0.00 0.00 61 1035.6
20260906073805 64 56 1.7 2.6 0.00 0.00 0.00 61 1035.6
20260906073305 64 56 2.6 2.6 0.00 0.00 0.00 61 1035.6
20260906072805 64 56 0.9 0.9 0.00 0.00 0.00 60 1035.6
20260906072306 65 56 0.9 2.6 0.00 0.00 0.00 60 1035.6
20260906071805 65 56 1.7 2.6 0.00 0.00 0.00 60 1035.6
20260906071306 65 56 1.7 2.6 0.00 0.00 0.00 59 1035.6
20260906070805 65 56 0.9 1.7 0.00 0.00 0.00 58 1035.6
20260906070305 66 56 1.7 1.7 0.00 0.00 0.00 57 1035.6
20260906065805 66 56 0.9 1.7 0.00 0.00 0.00 57 1035.6
20260906065306 66 56 0.9 1.7 0.00 0.00 0.00 56 1035.6
20260906064805 66 56 0.9 1.7 0.00 0.00 0.00 54 1035.6
20260906064305 67 56 0.9 4.3 0.00 0.00 0.00 54 1035.6
20260906063804 67 56 2.6 5.2 0.00 0.00 0.00 53 1035.6
20260906063305 67 56 0.9 2.6 0.00 0.00 0.00 53 1035.6
20260906062306 67 56 2.6 4.3 0.00 0.00 0.00 53 1035.6
20260906061805 67 56 2.6 4.3 0.00 0.00 0.00 53 1035.6
20260906061305 67 57 4.3 6.1 0.00 0.00 0.00 53 1035.6
20260906060805 67 56 1.7 4.3 0.00 0.00 0.00 53 1035.6
20260906060305 68 55 2.6 5.2 0.00 0.00 0.00 52 1035.6
20260906055806 68 55 3.5 4.3 0.00 0.00 0.00 52 1035.6
20260906055306 68 55 4.3 4.3 0.00 0.00 0.00 50 1035.6
20260906054804 69 54 1.7 4.3 0.00 0.00 0.00 50 1035.6
20260906054305 69 54 1.7 2.6 0.00 0.00 0.00 50 1035.6
20260906053805 69 54 1.7 2.6 0.00 0.00 0.00 50 1035.6
20260906053305 69 54 2.6 2.6 0.00 0.00 0.00 49 1035.6
20260906052805 69 54 1.7 4.3 0.00 0.00 0.00 48 1035.6
20260906052306 70 55 4.3 5.2 0.00 0.00 0.00 48 1035.6
20260906051804 70 52 5.2 5.2 0.00 0.00 0.00 48 1035.6
20260906051305 70 51 5.2 6.1 0.00 0.00 0.00 48 1035.6
20260906050805 70 45 5.2 6.1 0.00 0.00 0.00 47 1035.6
20260906050305 70 44 4.3 5.2 0.00 0.00 0.00 47 1035.6
20260906045805 70 43 2.6 6.1 0.00 0.00 0.00 47 1035.6
20260906045306 71 40 3.5 5.2 0.00 0.00 0.00 46 1035.6
20260906044806 71 38 4.3 5.2 0.00 0.00 0.00 46 1035.6
20260906044305 71 38 2.6 4.3 0.00 0.00 0.00 45 1035.6
20260906043805 71 36 4.3 5.2 0.00 0.00 0.00 45 1035.6
20260906042806 72 29 4.3 6.1 0.00 0.00 0.00 45 1035.6
20260906042306 72 52 6.1 8.7 0.00 0.00 0.00 44 1035.6
20260906041805 72 48 2.6 10.4 0.00 0.00 0.00 44 1035.6
20260906041304 73 47 4.3 5.2 0.00 0.00 0.00 44 1035.6
20260906040805 73 38 3.5 6.1 0.00 0.00 0.00 43 1035.6
20260906040305 73 37 5.2 7.0 0.00 0.00 0.00 42 1035.6
20260906035306 74 26 5.2 7.0 0.00 0.00 0.00 42 1035.6
20260906034805 74 36 5.2 7.0 0.00 0.00 0.00 42 1035.6
20260906033804 74 17 6.1 8.7 0.00 0.00 0.00 42 1035.6
20260906033304 74 24 5.2 10.4 0.00 0.00 0.00 42 1035.6
20260906032804 74 38 5.2 7.8 0.00 0.00 0.00 41 1035.6
20260906032306 75 35 6.1 6.1 0.00 0.00 0.00 41 1035.6
20260906031805 75 35 6.1 7.8 0.00 0.00 0.00 41 1035.6
20260906031304 75 37 7.0 8.7 0.00 0.00 0.00 41 1035.6
20260906030805 75 35 5.2 7.0 0.00 0.00 0.00 41 1035.6
20260906030305 76 20 5.2 7.8 0.00 0.00 0.00 41 1035.6
20260906025805 76 34 6.1 10.4 0.00 0.00 0.00 41 1035.6
20260906025306 76 41 6.1 10.4 0.00 0.00 0.00 41 1035.6
20260906024804 76 38 9.6 11.3 0.00 0.00 0.00 41 1035.6
20260906024304 76 31 5.2 5.2 0.00 0.00 0.00 41 1035.6
20260906023805 76 29 5.2 7.0 0.00 0.00 0.00 40 1035.6
20260906023305 77 24 5.2 7.8 0.00 0.00 0.00 40 1035.6
20260906022805 77 41 7.0 10.4 0.00 0.00 0.00 40 1035.6
20260906022307 77 24 6.1 6.1 0.00 0.00 0.00 40 1035.6
20260906021804 77 24 6.1 10.4 0.00 0.00 0.00 40 1035.6
20260906021305 77 31 5.2 7.0 0.00 0.00 0.00 39 1035.6
20260906020805 78 28 7.0 7.0 0.00 0.00 0.00 39 1035.6
20260906020304 78 28 6.1 7.8 0.00 0.00 0.00 39 1035.6
20260906015804 78 28 5.2 5.2 0.00 0.00 0.00 38 1035.6
20260906015306 78 28 7.8 8.7 0.00 0.00 0.00 38 1035.6
20260906014805 78 29 7.8 10.4 0.00 0.00 0.00 37 1035.6
20260906014304 79 35 5.2 5.2 0.00 0.00 0.00 37 1035.6
20260906013804 79 34 8.7 10.4 0.00 0.00 0.00 37 1035.6
20260906013304 79 24 5.2 5.2 0.00 0.00 0.00 36 1035.6
20260906012804 79 14 7.0 7.0 0.00 0.00 0.00 36 1035.6
20260906012306 80 5 7.0 7.0 0.00 0.00 0.00 35 1035.6
20260906011804 80 20 6.1 13.0 0.00 0.00 0.00 35 1035.6
20260906010304 80 31 6.1 12.2 0.00 0.00 0.00 33 1035.6
20260906005804 81 24 8.7 8.7 0.00 0.00 0.00 33 1035.6
20260906005306 81 35 8.7 12.2 0.00 0.00 0.00 33 1035.6
20260906004804 81 34 6.1 7.0 0.00 0.00 0.00 32 1035.6
20260906003804 82 25 7.0 10.4 0.00 0.00 0.00 31 1035.6
20260906003304 82 54 10.4 12.2 0.00 0.00 0.00 31 1035.6
20260906002805 82 25 6.1 10.4 0.00 0.00 0.00 31 1035.6
20260906002306 82 39 7.8 7.8 0.00 0.00 0.00 30 1035.6
20260906001804 82 39 8.7 15.6 0.00 0.00 0.00 30 1035.6
20260906001307 83 41 7.0 8.7 0.00 0.00 0.00 30 1035.6
20260906000807 83 15 1.7 10.4 0.00 0.00 0.00 30 1035.6
20260906000307 83 0 0.0 0.0 0.00 0.00 0.00 30 1035.6
20260905235807 83 0 0.0 0.0 0.00 0.00 0.00 29 1035.6
20260905235307 83 1 0.9 13.0 0.00 0.00 0.00 29 1035.6
20260905234807 83 48 13.0 13.0 0.00 0.00 0.00 29 1035.6
20260905233306 83 5 7.0 10.4 0.00 0.00 0.00 29 1035.6
20260905232806 84 46 7.0 15.6 0.00 0.00 0.00 29 1035.6
20260905232307 84 42 7.8 13.0 0.00 0.00 0.00 29 1035.6
20260905231806 84 33 5.2 8.7 0.00 0.00 0.00 29 1035.6
20260905231306 84 30 8.7 11.3 0.00 0.00 0.00 29 1035.6
20260905230307 84 15 7.8 10.4 0.00 0.00 0.00 28 1035.6
20260905225806 84 55 7.8 12.2 0.00 0.00 0.00 28 1035.6
20260905225308 84 43 6.1 7.8 0.00 0.00 0.00 29 1035.6
20260905224806 83 30 7.8 12.2 0.00 0.00 0.00 29 1035.6
20260905224306 83 7 8.7 13.0 0.00 0.00 0.00 29 1035.6
20260905223806 84 23 8.7 11.3 0.00 0.00 0.00 29 1035.6